BAW926E LHBP-LWSK

Flight info

Callsign BAW926E
Flight time 1h 6m
Altitude 35000
Route FAHAZ DCT KEROP DCT REDVA UL616 KOGAT
Aircraft A320/M-SDE3FGHIRWY/LB1

Departure

Time 2026-05-09 07:02
Airport Budapest Liszt Ferenc International Airport (LHBP)

Arrival

Time 2026-05-09 08:09
Airport Skopje International Airport (LWSK)
Time Latitude Longitude Altitude Speed Heading
2026-05-09 06:38 47.43507 19.26473 452 ft 0 kts 222°
2026-05-09 06:53 47.43518 19.26488 456 ft 2 kts 222°
2026-05-09 06:53 47.43531 19.26505 457 ft 3 kts 232°
2026-05-09 06:53 47.43540 19.26528 457 ft 3 kts 263°
2026-05-09 06:53 47.43539 19.26554 458 ft 3 kts 299°
2026-05-09 06:54 47.43530 19.26572 453 ft 2 kts 322°
2026-05-09 06:54 47.43521 19.26583 453 ft 0 kts 313°
2026-05-09 06:56 47.43521 19.26582 453 ft 0 kts 313°
2026-05-09 06:57 47.43547 19.26540 454 ft 10 kts 311°
2026-05-09 06:57 47.43598 19.26456 456 ft 12 kts 313°
2026-05-09 06:58 47.43657 19.26356 457 ft 14 kts 304°
2026-05-09 06:58 47.43677 19.26212 457 ft 16 kts 268°
2026-05-09 06:58 47.43667 19.26102 457 ft 8 kts 250°
2026-05-09 06:58 47.43634 19.26025 456 ft 10 kts 229°
2026-05-09 06:59 47.43576 19.25942 457 ft 13 kts 223°
2026-05-09 06:59 47.43506 19.25847 457 ft 15 kts 222°
2026-05-09 06:59 47.43425 19.25740 456 ft 17 kts 222°
2026-05-09 06:59 47.43336 19.25620 456 ft 15 kts 222°
2026-05-09 07:00 47.43316 19.25483 454 ft 16 kts 303°
2026-05-09 07:00 47.43308 19.25340 457 ft 16 kts 224°
2026-05-09 07:00 47.43219 19.25219 457 ft 18 kts 222°
2026-05-09 07:00 47.43130 19.25101 457 ft 16 kts 222°
2026-05-09 07:01 47.43097 19.24977 457 ft 13 kts 275°
2026-05-09 07:01 47.43123 19.24903 457 ft 0 kts 310°
2026-05-09 07:01 47.43249 19.24699 456 ft 70 kts 312°
2026-05-09 07:02 47.43767 19.23865 455 ft 144 kts 312°
2026-05-09 07:02 47.44548 19.22601 758 ft 176 kts 313°
2026-05-09 07:02 47.45372 19.21269 1695 ft 175 kts 313°
2026-05-09 07:02 47.46207 19.19915 2252 ft 186 kts 314°
2026-05-09 07:03 47.47135 19.18413 2555 ft 209 kts 313°
2026-05-09 07:03 47.48163 19.16716 2980 ft 233 kts 309°
2026-05-09 07:03 47.48850 19.14412 3498 ft 259 kts 280°
2026-05-09 07:03 47.48701 19.11720 4372 ft 270 kts 253°
2026-05-09 07:04 47.47711 19.09342 5349 ft 277 kts 225°
2026-05-09 07:04 47.46067 19.07843 6375 ft 281 kts 204°
2026-05-09 07:04 47.44280 19.06694 7321 ft 280 kts 207°
2026-05-09 07:04 47.42544 19.05448 8209 ft 282 kts 208°
2026-05-09 07:05 47.40758 19.04113 9062 ft 285 kts 209°
2026-05-09 07:05 47.39004 19.02797 9869 ft 288 kts 209°
2026-05-09 07:05 47.37198 19.01445 10454 ft 299 kts 210°
2026-05-09 07:05 47.35304 18.99915 10678 ft 321 kts 212°
2026-05-09 07:06 47.33316 18.98287 11089 ft 334 kts 208°
2026-05-09 07:06 47.31185 18.96782 11587 ft 345 kts 206°
2026-05-09 07:06 47.28971 18.95355 12253 ft 349 kts 205°
2026-05-09 07:06 47.26715 18.93931 12935 ft 353 kts 204°
2026-05-09 07:07 47.24457 18.92492 13635 ft 356 kts 205°
2026-05-09 07:07 47.22180 18.91007 14262 ft 359 kts 205°
2026-05-09 07:07 47.19905 18.89489 14839 ft 362 kts 206°
2026-05-09 07:07 47.17601 18.87926 15419 ft 365 kts 206°
2026-05-09 07:08 47.15278 18.86359 15969 ft 369 kts 203°
2026-05-09 07:08 47.12801 18.85318 16515 ft 374 kts 189°
2026-05-09 07:08 47.10192 18.85186 17054 ft 379 kts 175°
2026-05-09 07:08 47.07606 18.86008 17613 ft 384 kts 161°
2026-05-09 07:09 47.05204 18.87752 18178 ft 388 kts 146°
2026-05-09 07:09 47.03021 18.90033 18710 ft 391 kts 144°
2026-05-09 07:09 47.00782 18.92396 19247 ft 393 kts 145°
2026-05-09 07:09 46.98551 18.94742 19799 ft 395 kts 146°
2026-05-09 07:10 46.96337 18.97064 20326 ft 397 kts 146°
2026-05-09 07:10 46.94082 18.99425 20854 ft 400 kts 146°
2026-05-09 07:10 46.91810 19.01799 21363 ft 402 kts 146°
2026-05-09 07:10 46.89527 19.04179 21849 ft 404 kts 147°
2026-05-09 07:11 46.87217 19.06525 22321 ft 406 kts 148°
2026-05-09 07:11 46.84850 19.08791 22800 ft 407 kts 150°
2026-05-09 07:11 46.82446 19.11004 23266 ft 409 kts 151°
2026-05-09 07:11 46.80019 19.13201 23722 ft 412 kts 151°
2026-05-09 07:12 46.77575 19.15413 24110 ft 414 kts 151°
2026-05-09 07:12 46.75125 19.17647 24521 ft 415 kts 150°
2026-05-09 07:12 46.72677 19.19900 24924 ft 417 kts 150°
2026-05-09 07:12 46.70224 19.22174 25317 ft 418 kts 150°
2026-05-09 07:13 46.67764 19.24461 25711 ft 420 kts 150°
2026-05-09 07:13 46.65299 19.26750 26108 ft 421 kts 150°
2026-05-09 07:13 46.62823 19.29047 26491 ft 423 kts 150°
2026-05-09 07:13 46.60367 19.31323 26855 ft 424 kts 150°
2026-05-09 07:14 46.57867 19.33636 27227 ft 426 kts 150°
2026-05-09 07:14 46.55352 19.35954 27604 ft 428 kts 150°
2026-05-09 07:14 46.52833 19.38270 27990 ft 430 kts 150°
2026-05-09 07:14 46.50300 19.40595 28367 ft 431 kts 150°
2026-05-09 07:15 46.47761 19.42926 28732 ft 433 kts 150°
2026-05-09 07:15 46.45206 19.45270 29087 ft 435 kts 150°
2026-05-09 07:15 46.42650 19.47611 29556 ft 433 kts 150°
2026-05-09 07:15 46.40111 19.49938 30098 ft 431 kts 150°
2026-05-09 07:16 46.37579 19.52258 30523 ft 430 kts 150°
2026-05-09 07:16 46.35047 19.54577 30881 ft 431 kts 150°
2026-05-09 07:16 46.32509 19.56894 31222 ft 432 kts 150°
2026-05-09 07:16 46.29958 19.59219 31552 ft 433 kts 150°
2026-05-09 07:17 46.27403 19.61539 31884 ft 435 kts 150°
2026-05-09 07:17 46.24834 19.63863 32227 ft 436 kts 150°
2026-05-09 07:17 46.22257 19.66192 32563 ft 437 kts 150°
2026-05-09 07:17 46.19629 19.68393 32884 ft 437 kts 157°
2026-05-09 07:18 46.16852 19.69998 33205 ft 435 kts 166°
2026-05-09 07:18 46.13884 19.71028 33536 ft 434 kts 171°
2026-05-09 07:18 46.10955 19.71889 33864 ft 435 kts 172°
2026-05-09 07:18 46.07984 19.72760 34159 ft 437 kts 172°
2026-05-09 07:19 46.04999 19.73638 34436 ft 438 kts 172°
2026-05-09 07:19 46.02013 19.74519 34709 ft 438 kts 172°
2026-05-09 07:19 45.99021 19.75404 34976 ft 439 kts 172°
2026-05-09 07:19 45.96016 19.76287 35057 ft 443 kts 172°
2026-05-09 07:20 45.89908 19.78075 35068 ft 451 kts 172°
2026-05-09 07:20 45.83746 19.79888 35067 ft 452 kts 171°
2026-05-09 07:21 45.77575 19.81703 35065 ft 453 kts 172°
2026-05-09 07:21 45.71384 19.83498 35066 ft 454 kts 172°
2026-05-09 07:22 45.65191 19.85300 35061 ft 454 kts 172°
2026-05-09 07:22 45.59032 19.87094 35062 ft 455 kts 172°
2026-05-09 07:23 45.52823 19.88892 35056 ft 455 kts 172°
2026-05-09 07:23 45.46613 19.90681 35054 ft 456 kts 172°
2026-05-09 07:24 45.40392 19.92478 35055 ft 457 kts 172°
2026-05-09 07:24 45.34146 19.94274 35056 ft 457 kts 172°
2026-05-09 07:25 45.27896 19.96069 35061 ft 457 kts 172°
2026-05-09 07:25 45.21689 19.97852 35062 ft 458 kts 172°
2026-05-09 07:26 45.15440 19.99640 35069 ft 458 kts 172°
2026-05-09 07:26 45.09180 20.01426 35067 ft 458 kts 172°
2026-05-09 07:27 45.02920 20.03207 35066 ft 459 kts 172°
2026-05-09 07:27 44.96654 20.04989 35079 ft 459 kts 172°
2026-05-09 07:28 44.90382 20.06766 35067 ft 459 kts 172°
2026-05-09 07:28 44.84109 20.08545 35071 ft 460 kts 172°
2026-05-09 07:29 44.77867 20.10305 35077 ft 461 kts 172°
2026-05-09 07:29 44.71578 20.12073 35079 ft 461 kts 172°
2026-05-09 07:30 44.65276 20.13842 35086 ft 462 kts 172°
2026-05-09 07:30 44.58969 20.15603 35095 ft 462 kts 172°
2026-05-09 07:31 44.52662 20.17369 35098 ft 462 kts 172°
2026-05-09 07:31 44.46345 20.19134 35104 ft 462 kts 172°
2026-05-09 07:32 44.40043 20.20882 35103 ft 462 kts 172°
2026-05-09 07:32 44.33777 20.22621 35108 ft 462 kts 172°
2026-05-09 07:33 44.24320 20.25236 35104 ft 461 kts 172°
2026-05-09 07:34 44.18024 20.26978 35100 ft 461 kts 173°
2026-05-09 07:34 44.11727 20.28714 35105 ft 461 kts 173°
2026-05-09 07:35 44.05429 20.30456 35101 ft 461 kts 173°
2026-05-09 07:35 44.00202 20.31904 35106 ft 461 kts 173°
2026-05-09 07:36 43.93910 20.33623 35109 ft 460 kts 173°
2026-05-09 07:36 43.86603 20.35605 35113 ft 460 kts 173°
2026-05-09 07:36 43.83466 20.36460 34976 ft 458 kts 173°
2026-05-09 07:37 43.81349 20.37038 34586 ft 458 kts 173°
2026-05-09 07:37 43.78218 20.37893 33977 ft 458 kts 173°
2026-05-09 07:37 43.75086 20.38749 33276 ft 459 kts 173°
2026-05-09 07:37 43.71945 20.39606 32522 ft 461 kts 173°
2026-05-09 07:38 43.68834 20.40451 31845 ft 461 kts 173°
2026-05-09 07:38 43.65691 20.41303 31314 ft 459 kts 173°
2026-05-09 07:38 43.62564 20.42152 30909 ft 456 kts 173°
2026-05-09 07:38 43.59446 20.42999 30779 ft 457 kts 173°
2026-05-09 07:39 43.56322 20.43844 30811 ft 458 kts 173°
2026-05-09 07:39 43.50060 20.45527 30803 ft 458 kts 173°
2026-05-09 07:40 43.43799 20.47202 30807 ft 458 kts 173°
2026-05-09 07:40 43.37544 20.48884 30804 ft 458 kts 173°
2026-05-09 07:41 43.31292 20.50576 30798 ft 458 kts 173°
2026-05-09 07:41 43.25042 20.52264 30800 ft 457 kts 173°
2026-05-09 07:42 43.18792 20.53933 30804 ft 457 kts 173°
2026-05-09 07:42 43.12552 20.55590 30798 ft 457 kts 173°
2026-05-09 07:43 43.06353 20.57236 30799 ft 456 kts 172°
2026-05-09 07:43 43.00169 20.59184 30782 ft 458 kts 163°
2026-05-09 07:43 42.97188 20.60730 30348 ft 458 kts 162°
2026-05-09 07:44 42.94215 20.62302 29646 ft 457 kts 161°
2026-05-09 07:44 42.91253 20.63878 28929 ft 456 kts 161°
2026-05-09 07:44 42.88303 20.65447 28229 ft 454 kts 161°
2026-05-09 07:44 42.85367 20.67003 27550 ft 452 kts 161°
2026-05-09 07:45 42.82438 20.68552 26886 ft 450 kts 161°
2026-05-09 07:45 42.79530 20.70085 26236 ft 448 kts 161°
2026-05-09 07:45 42.76620 20.71612 25601 ft 446 kts 161°
2026-05-09 07:45 42.73763 20.73109 24991 ft 443 kts 161°
2026-05-09 07:46 42.70890 20.74614 24375 ft 441 kts 162°
2026-05-09 07:46 42.68034 20.76108 23792 ft 439 kts 162°
2026-05-09 07:46 42.65187 20.77595 23104 ft 436 kts 161°
2026-05-09 07:46 42.62364 20.79068 22418 ft 433 kts 161°
2026-05-09 07:47 42.59559 20.80534 21736 ft 430 kts 161°
2026-05-09 07:47 42.56771 20.81991 21075 ft 427 kts 161°
2026-05-09 07:47 42.54002 20.83441 20416 ft 425 kts 160°
2026-05-09 07:47 42.51248 20.84881 19789 ft 422 kts 160°
2026-05-09 07:48 42.48515 20.86305 19173 ft 420 kts 160°
2026-05-09 07:48 42.45832 20.87699 18576 ft 417 kts 160°
2026-05-09 07:48 42.43132 20.89100 17910 ft 415 kts 160°
2026-05-09 07:48 42.40445 20.90492 17227 ft 412 kts 160°
2026-05-09 07:49 42.37765 20.91876 16544 ft 410 kts 160°
2026-05-09 07:49 42.35103 20.93254 15890 ft 410 kts 160°
2026-05-09 07:49 42.32444 20.94630 15240 ft 408 kts 160°
2026-05-09 07:49 42.29824 20.95987 14953 ft 393 kts 160°
2026-05-09 07:50 42.27369 20.97261 14871 ft 362 kts 160°
2026-05-09 07:50 42.25057 20.98459 14885 ft 354 kts 160°
2026-05-09 07:50 42.22760 20.99642 14880 ft 353 kts 160°
2026-05-09 07:50 42.20491 21.00806 14879 ft 337 kts 160°
2026-05-09 07:51 42.18380 21.01890 14880 ft 311 kts 160°
2026-05-09 07:51 42.16395 21.02908 14880 ft 303 kts 161°
2026-05-09 07:51 42.14428 21.03918 14879 ft 302 kts 160°
2026-05-09 07:51 42.12578 21.05245 14794 ft 302 kts 144°
2026-05-09 07:52 42.11034 21.07213 14229 ft 312 kts 128°
2026-05-09 07:52 42.09940 21.09782 13590 ft 323 kts 113°
2026-05-09 07:52 42.09101 21.12597 12908 ft 332 kts 112°
2026-05-09 07:52 42.08222 21.15499 12233 ft 338 kts 113°
2026-05-09 07:53 42.07319 21.18445 11576 ft 343 kts 113°
2026-05-09 07:53 42.06399 21.21424 10933 ft 347 kts 113°
2026-05-09 07:53 42.05470 21.24429 10299 ft 349 kts 113°
2026-05-09 07:53 42.04534 21.27456 9645 ft 352 kts 113°
2026-05-09 07:54 42.03594 21.30502 8971 ft 354 kts 113°
2026-05-09 07:54 42.02651 21.33564 8308 ft 355 kts 113°
2026-05-09 07:54 42.01704 21.36638 7654 ft 356 kts 113°
2026-05-09 07:54 42.00753 21.39718 7012 ft 356 kts 112°
2026-05-09 07:55 41.99803 21.42787 6377 ft 355 kts 112°
2026-05-09 07:55 41.98857 21.45843 5846 ft 350 kts 112°
2026-05-09 07:55 41.97942 21.48794 5691 ft 329 kts 112°
2026-05-09 07:55 41.97103 21.51490 5699 ft 298 kts 112°
2026-05-09 07:56 41.96339 21.53939 5709 ft 272 kts 112°
2026-05-09 07:56 41.95637 21.56187 5625 ft 252 kts 112°
2026-05-09 07:56 41.94973 21.58321 5341 ft 243 kts 112°
2026-05-09 07:56 41.94334 21.60372 5065 ft 233 kts 114°
2026-05-09 07:57 41.93448 21.62172 4799 ft 232 kts 134°
2026-05-09 07:57 41.92151 21.63432 4512 ft 230 kts 155°
2026-05-09 07:57 41.90632 21.64071 4236 ft 228 kts 166°
2026-05-09 07:57 41.89108 21.64590 4037 ft 222 kts 166°
2026-05-09 07:58 41.87648 21.65095 4006 ft 213 kts 166°
2026-05-09 07:58 41.86240 21.65584 3923 ft 205 kts 166°
2026-05-09 07:58 41.84917 21.66044 3800 ft 193 kts 166°
2026-05-09 07:58 41.83658 21.66481 3685 ft 180 kts 166°
2026-05-09 07:59 41.82487 21.66888 3603 ft 168 kts 166°
2026-05-09 07:59 41.81380 21.67272 3602 ft 162 kts 166°
2026-05-09 07:59 41.80291 21.67649 3606 ft 160 kts 166°
2026-05-09 07:59 41.79212 21.68023 3610 ft 160 kts 166°
2026-05-09 08:00 41.78135 21.68396 3604 ft 160 kts 166°
2026-05-09 08:00 41.77059 21.68770 3619 ft 160 kts 166°
2026-05-09 08:00 41.75981 21.69144 3603 ft 160 kts 166°
2026-05-09 08:00 41.74906 21.69516 3612 ft 160 kts 166°
2026-05-09 08:01 41.73839 21.69912 3618 ft 159 kts 157°
2026-05-09 08:01 41.72952 21.70762 3613 ft 158 kts 128°
2026-05-09 08:01 41.72462 21.72060 3647 ft 156 kts 101°
2026-05-09 08:01 41.72459 21.73472 3620 ft 151 kts 74°
2026-05-09 08:02 41.72916 21.74704 3621 ft 147 kts 49°
2026-05-09 08:02 41.73715 21.75540 3611 ft 147 kts 24°
2026-05-09 08:02 41.74701 21.75838 3603 ft 145 kts 359°
2026-05-09 08:02 41.75667 21.75527 3598 ft 145 kts 325°
2026-05-09 08:03 41.76307 21.74500 3601 ft 145 kts 309°
2026-05-09 08:03 41.77015 21.73548 3606 ft 145 kts 316°
2026-05-09 08:03 41.77725 21.72616 3612 ft 145 kts 316°
2026-05-09 08:03 41.78445 21.71670 3607 ft 145 kts 316°
2026-05-09 08:04 41.79163 21.70726 3603 ft 145 kts 316°
2026-05-09 08:04 41.79884 21.69779 3608 ft 145 kts 316°
2026-05-09 08:04 41.80605 21.68831 3607 ft 145 kts 316°
2026-05-09 08:04 41.81358 21.67937 3603 ft 145 kts 326°
2026-05-09 08:05 41.82241 21.67282 3563 ft 145 kts 336°
2026-05-09 08:05 41.83182 21.66792 3422 ft 145 kts 341°
2026-05-09 08:05 41.84144 21.66383 3235 ft 145 kts 343°
2026-05-09 08:05 41.85101 21.66017 3036 ft 144 kts 344°
2026-05-09 08:06 41.86069 21.65665 2825 ft 143 kts 345°
2026-05-09 08:06 41.87033 21.65323 2608 ft 143 kts 345°
2026-05-09 08:06 41.87995 21.64986 2394 ft 143 kts 345°
2026-05-09 08:06 41.88958 21.64650 2167 ft 143 kts 346°
2026-05-09 08:07 41.89919 21.64315 1953 ft 142 kts 346°
2026-05-09 08:07 41.90876 21.63983 1740 ft 142 kts 345°
2026-05-09 08:07 41.91834 21.63650 1533 ft 142 kts 345°
2026-05-09 08:07 41.92787 21.63318 1334 ft 141 kts 346°
2026-05-09 08:08 41.93737 21.62987 1122 ft 141 kts 345°
2026-05-09 08:08 41.94686 21.62657 922 ft 141 kts 345°
2026-05-09 08:08 41.95623 21.62332 780 ft 130 kts 346°
2026-05-09 08:08 41.96351 21.62081 786 ft 93 kts 346°
2026-05-09 08:09 41.96826 21.61918 788 ft 44 kts 345°
2026-05-09 08:09 41.96996 21.61913 788 ft 14 kts 58°
2026-05-09 08:09 41.96985 21.61975 788 ft 0 kts 126°
2026-05-09 08:10 41.96976 21.61992 788 ft 5 kts 124°
2026-05-09 08:10 41.96953 21.62035 788 ft 7 kts 127°
2026-05-09 08:10 41.96905 21.62115 788 ft 13 kts 133°
2026-05-09 08:10 41.96823 21.62174 787 ft 14 kts 161°
2026-05-09 08:11 41.96725 21.62212 787 ft 15 kts 164°
2026-05-09 08:11 41.96619 21.62251 786 ft 16 kts 165°
2026-05-09 08:11 41.96537 21.62344 786 ft 14 kts 133°
2026-05-09 08:11 41.96446 21.62392 785 ft 15 kts 165°
2026-05-09 08:12 41.96229 21.62469 784 ft 17 kts 166°
2026-05-09 08:12 41.96152 21.62496 783 ft 8 kts 154°
2026-05-09 08:12 41.96140 21.62530 783 ft 2 kts 98°
2026-05-09 08:13 41.96141 21.62551 783 ft 3 kts 82°
2026-05-09 08:13 41.96142 21.62562 783 ft 0 kts 81°